Location: American Canyon
(38.1966°N, 122.1514°W)
Time: 16:36:56
(UTC+00:00)

ERS-2 - Pass Details

Date: 29 October 2020
Orbit: 493 x 498 km, 98.6° (Epoch: 23 November)

Event Time Altitude Azimuth Distance (km) Brightness Sun altitude
Rises 13:37:59 0° 200° (SSW) 2,564 5.6 -11.2°
Reaches altitude 10° 13:40:34 10° 221° (SW) 1,686 4.5 -10.7°
Maximum altitude 13:43:04 18° 264° (W) 1,288 3.6 -10.2°
Enters shadow 13:45:14 12° 304° (WNW) 1,601 4.1 -9.8°
